User: anonymous   Login
Location: Strohbehn Observatory
(42.4649°N, 93.8239°W)
Time: 12:03:15
(UTC-06:00)
Language:

SL-16 R/B - Orbit

View from above orbital plane
View from above orbital plane
View from above satellite
View from above satellite

Ground track
Ground track

The orbit data is extracted from the following two-line orbital elements,

1 31793U 07029B   18020.90871859 -.00000181 +00000-0 -69354-4 0  9992
2 31793 070.9771 291.8314 0002569 263.2997 145.9566 14.14397503545461
Epoch (UTC): 20 January 2018 21:48:33
Eccentricity: 0.0002569
inclination: 70.9771°
perigee height: 842 km
apogee height: 846 km
right ascension of ascending node: 291.8314°
argument of perigee: 263.2997°
revolutions per day: 14.14397503
mean anomaly at epoch: 145.9566°
orbit number at epoch: 54546

The dashed part of the orbit path shows where the satellite is in the earth's shadow,  

DLR